| time (UTC) | temp F | wind direction | speed MPH | gust MPH | rain 1hr in | rain 24hr in | rain mn in | humidity % | barometer mb |
| 20260504023008 | 60 | 246 | 2.0 | 4.0 | 0.00 | 0.00 | 0.00 | 32 | 1003.0 |
| 20260504021505 | 60 | 268 | 2.0 | 6.0 | 0.00 | 0.00 | 0.00 | 32 | 1003.0 |
| 20260504020007 | 61 | 279 | 2.0 | 4.0 | 0.00 | 0.00 | 0.00 | 32 | 1003.1 |
| 20260504014503 | 62 | 280 | 1.0 | 3.0 | 0.00 | 0.00 | 0.00 | 31 | 1003.1 |
| 20260504013002 | 62 | 280 | 2.0 | 3.0 | 0.00 | 0.00 | 0.00 | 31 | 1003.2 |
| 20260504011606 | 63 | 283 | 1.0 | 7.0 | 0.00 | 0.00 | 0.00 | 31 | 1003.2 |
| 20260504010101 | 64 | 273 | 3.0 | 9.0 | 0.00 | 0.00 | 0.00 | 30 | 1003.2 |
| 20260504004559 | 65 | 249 | 2.0 | 4.0 | 0.00 | 0.00 | 0.00 | 29 | 1003.2 |
| 20260504003100 | 66 | 239 | 2.0 | 9.0 | 0.00 | 0.00 | 0.00 | 28 | 1003.3 |
| 20260504001609 | 66 | 245 | 4.0 | 11.0 | 0.00 | 0.00 | 0.00 | 27 | 1003.3 |
| 20260504000056 | 67 | 266 | 3.0 | 11.0 | 0.00 | 0.00 | 0.00 | 27 | 1003.3 |
| 20260503234556 | 67 | 261 | 6.0 | 12.0 | 0.00 | 0.00 | 0.00 | 28 | 1003.3 |
| 20260503233055 | 68 | 286 | 4.0 | 16.0 | 0.00 | 0.00 | 0.00 | 28 | 1003.3 |
| 20260503231553 | 69 | 285 | 5.0 | 14.0 | 0.00 | 0.00 | 0.00 | 29 | 1003.3 |
| 20260503230053 | 69 | 259 | 5.0 | 12.0 | 0.00 | 0.00 | 0.00 | 27 | 1003.4 |
| 20260503224552 | 70 | 242 | 2.0 | 12.0 | 0.00 | 0.00 | 0.00 | 26 | 1003.5 |
| 20260503223051 | 71 | 271 | 2.0 | 14.0 | 0.00 | 0.00 | 0.00 | 24 | 1003.7 |
| 20260503221550 | 72 | 298 | 8.0 | 19.0 | 0.00 | 0.00 | 0.00 | 23 | 1003.5 |
| 20260503220052 | 72 | 340 | 6.0 | 14.0 | 0.00 | 0.00 | 0.00 | 22 | 1003.5 |
| 20260503214549 | 72 | 304 | 4.0 | 13.0 | 0.00 | 0.00 | 0.00 | 22 | 1003.5 |
| 20260503213055 | 72 | 306 | 6.0 | 15.0 | 0.00 | 0.00 | 0.00 | 23 | 1003.5 |
| 20260503211545 | 72 | 215 | 3.0 | 14.0 | 0.00 | 0.00 | 0.00 | 25 | 1003.5 |
| 20260503210049 | 73 | 275 | 3.0 | 15.0 | 0.00 | 0.00 | 0.00 | 27 | 1003.6 |
| 20260503204542 | 73 | 329 | 8.0 | 15.0 | 0.00 | 0.00 | 0.00 | 28 | 1003.9 |
| 20260503203040 | 72 | 355 | 3.0 | 18.0 | 0.00 | 0.00 | 0.00 | 28 | 1003.9 |
| 20260503201537 | 72 | 327 | 5.0 | 17.0 | 0.00 | 0.00 | 0.00 | 31 | 1004.1 |
| 20260503200042 | 72 | 321 | 7.0 | 19.0 | 0.00 | 0.00 | 0.00 | 29 | 1004.3 |
| 20260503194538 | 72 | 313 | 8.0 | 16.0 | 0.00 | 0.00 | 0.00 | 33 | 1004.3 |
| 20260503193036 | 72 | 343 | 8.0 | 13.0 | 0.00 | 0.00 | 0.00 | 34 | 1004.3 |
| 20260503191534 | 72 | 325 | 5.0 | 12.0 | 0.00 | 0.00 | 0.00 | 34 | 1004.4 |
| 20260503190033 | 72 | 294 | 5.0 | 13.0 | 0.00 | 0.00 | 0.00 | 33 | 1004.5 |
| 20260503184532 | 72 | 17 | 4.0 | 17.0 | 0.00 | 0.00 | 0.00 | 29 | 1004.5 |
| 20260503183047 | 72 | 293 | 5.0 | 13.0 | 0.00 | 0.00 | 0.00 | 34 | 1004.7 |
| 20260503181528 | 72 | 310 | 5.0 | 12.0 | 0.00 | 0.00 | 0.00 | 35 | 1004.7 |
| 20260503180028 | 71 | 319 | 4.0 | 14.0 | 0.00 | 0.00 | 0.00 | 34 | 1004.9 |
| 20260503174527 | 71 | 331 | 8.0 | 17.0 | 0.00 | 0.00 | 0.00 | 35 | 1005.0 |
| 20260503173025 | 71 | 313 | 6.0 | 11.0 | 0.00 | 0.00 | 0.00 | 34 | 1005.0 |
| 20260503171521 | 70 | 14 | 5.0 | 15.0 | 0.00 | 0.00 | 0.00 | 36 | 1005.1 |
| 20260503081505 | 53 | 200 | 5.0 | 10.0 | 0.00 | 0.00 | 0.00 | 56 | 1006.2 |
| 20260503080117 | 53 | 194 | 4.0 | 9.0 | 0.00 | 0.00 | 0.00 | 55 | 1006.1 |
| 20260503071552 | 54 | 221 | 3.0 | 12.0 | 0.00 | 0.00 | 0.00 | 50 | 1007.4 |
| 20260503070150 | 54 | 207 | 5.0 | 11.0 | 0.00 | 0.00 | 0.00 | 51 | 1007.5 |
| 20260503054544 | 56 | 179 | 2.0 | 7.0 | 0.00 | 0.00 | 0.00 | 49 | 1008.2 |
| 20260503053033 | 57 | 157 | 4.0 | 9.0 | 0.00 | 0.00 | 0.00 | 48 | 1008.3 |
| 20260503051529 | 57 | 221 | 3.0 | 6.0 | 0.00 | 0.00 | 0.00 | 48 | 1008.4 |
| 20260503050035 | 57 | 188 | 2.0 | 6.0 | 0.00 | 0.00 | 0.00 | 48 | 1008.7 |
| 20260503044526 | 57 | 188 | 3.0 | 6.0 | 0.00 | 0.00 | 0.00 | 47 | 1008.7 |
| 20260503043023 | 57 | 183 | 3.0 | 8.0 | 0.00 | 0.00 | 0.00 | 46 | 1009.1 |
| 20260503041521 | 57 | 191 | 3.0 | 8.0 | 0.00 | 0.00 | 0.00 | 47 | 1009.3 |
| 20260503040020 | 57 | 251 | 3.0 | 8.0 | 0.00 | 0.00 | 0.00 | 48 | 1009.8 |
| 20260503034532 | 58 | 187 | 3.0 | 9.0 | 0.00 | 0.00 | 0.00 | 47 | 1009.8 |
| 20260503033023 | 58 | 232 | 2.0 | 5.0 | 0.00 | 0.00 | 0.00 | 47 | 1010.1 |
| 20260503031512 | 58 | 252 | 3.0 | 10.0 | 0.00 | 0.00 | 0.00 | 47 | 1010.4 |
| 20260503030009 | 58 | 243 | 3.0 | 10.0 | 0.00 | 0.00 | 0.00 | 46 | 1010.8 |
| 20260503024510 | 59 | 241 | 5.0 | 11.0 | 0.00 | 0.00 | 0.00 | 45 | 1010.9 |